Location: Skalnate Pleso
(49.1889°N, 20.2450°E)
Time: 00:31:05
(UTC+02:00)

COSMOS 2428 - Pass Details

Date: 01 March 2020
Orbit: 846 x 856 km, 70.9° (Epoch: 06 April)

Event Time Altitude Azimuth Distance (km) Brightness Sun altitude
Exits shadow 01:10:21 13° 13° (NNE) 2,262 5.4 -45.1°
Drops below altitude 10° 01:11:05 10° 17° (NNE) 2,500 5.7 -45.1°
Sets 01:13:47 0° 26° (NNE) 3,439 6.6 -44.8°
